CAPE
66 35 37 55 44 33 20 3 5 7 4 11 8 2 3 0 15 20 25 6 25 48 63 69 73 103 14 34 3 0 0 0 0 9 0 4 47 0 0 0 0 0 0 0 0 0 0
54 39 30 45 34 44 51 31 4 6 3 3 8 1 1 0 1 41 34 23 17 41 92 93 115 100 2 12 0 0 0 0 0 11 2 0 12 0 0 0 0 0 0 0 0 0 0
40 41 29 27 17 24 45 39 5 4 2 9 4 15 15 12 46 28 32 44 29 23 97 108 125 28 30 0 0 0 0 0 0 3 5 0 7 1 0 0 0 0 5 0 0 0 0
45 46 42 24 18 18 23 34 19 2 9 12 13 22 33 14 33 32 46 52 77 104 94 105 69 10 16 1 0 0 0 0 0 0 0 0 35 12 4 1 0 12 0 1 0 0 0
42 42 61 40 23 26 29 33 39 5 4 6 6 14 31 36 45 55 72 76 91 105 110 69 28 31 12 4 0 0 0 0 0 25 13 2 95 97 14 1 6 0 1 0 0 0 0
28 42 54 52 38 29 38 21 45 13 6 2 7 55 65 37 35 42 67 85 79 78 38 44 15 18 3 2 0 0 0 0 1 67 80 93 198 61 48 39 49 0 0 0 0 0 0
33 54 51 62 45 31 29 27 30 14 4 7 20 41 69 48 7 29 47 37 15 20 13 0 0 0 10 0 0 5 0 0 0 74 4 38 74 65 28 20 0 0 0 0 0 0 0
37 56 52 55 40 34 19 22 6 5 2 3 11 26 70 39 13 26 58 0 0 0 0 0 0 0 0 36 171 32 0 0 27 1 0 78 81 47 0 2 0 0 0 0 0 0 0
46 40 71 54 42 35 26 13 2 0 5 2 8 28 30 0 6 45 8 0 2 11 7 1 0 3 9 0 46 69 0 1 67 0 7 23 16 17 11 13 24 0 0 0 0 0 0
74 72 83 62 43 41 46 33 6 0 2 11 14 36 31 3 46 9 4 8 0 1 12 6 4 1 12 68 20 32 0 5 60 0 0 69 6 19 16 1 0 1 0 0 0 0 0
68 81 74 71 65 56 44 49 30 10 3 9 8 19 43 5 31 42 7 15 2 10 5 1 5 2 0 1 16 14 0 40 39 0 43 31 28 14 15 0 0 0 0 0 0 0 0
77 101 89 78 67 63 54 46 49 34 19 10 12 5 47 28 26 30 5 24 53 10 0 23 15 24 20 12 63 73 1 35 55 5 2 13 5 91 10 0 0 0 0 0 0 0 0
71 99 103 85 68 64 55 51 51 44 32 13 13 29 37 31 46 11 6 29 7 5 4 24 18 24 6 0 12 38 7 21 24 15 16 10 27 2 28 0 0 0 2 2 1 0 0
90 85 72 69 67 60 59 58 49 46 37 15 14 29 23 14 55 4 38 11 8 2 0 21 6 31 13 0 36 47 3 6 26 7 1 10 8 0 0 0 0 0 0 0 0 0 0
79 83 80 59 61 55 55 67 41 28 20 11 12 1 17 8 39 33 2 6 0 3 0 13 26 6 17 18 36 35 5 6 8 7 0 3 1 0 0 0 0 0 0 0 0 0 0
85 74 64 63 45 46 46 66 31 20 15 7 0 2 3 3 6 13 4 6 12 3 14 0 0 0 0 13 5 11 31 18 50 0 0 0 0 0 0 0 0 0 0 0 0 0 0
102 79 66 67 51 41 48 51 25 16 19 0 1 0 3 29 16 32 5 3 6 15 0 0 15 9 10 0 7 1 0 53 38 0 0 0 0 0 0 0 0 0 0 0 0 0 0
78 89 62 56 36 36 38 41 29 13 0 0 0 0 9 8 16 26 16 7 1 0 10 0 0 17 0 0 0 12 2 1 14 0 0 0 0 0 0 0 0 0 0 0 0 0 0
40 90 68 45 28 15 23 33 24 1 1 0 0 3 24 18 13 13 18 10 8 18 38 22 1 0 0 0 19 31 11 0 0 2 0 0 0 0 0 0 0 0 0 0 0 0 0
10 86 71 37 26 11 11 22 17 0 2 0 0 3 22 18 8 7 21 26 21 34 38 38 0 0 0 0 0 0 0 0 0 0 0 0 0 0 0 0 0 0 0 0 0 0 0
6 82 77 44 30 19 10 18 14 1 5 0 0 0 0 2 2 0 0 20 9 25 18 1 1 0 0 0 0 0 0 0 0 0 0 0 0 0 0 0 0 0 0 0 0 0 0
20 25 80 48 30 17 12 19 10 1 4 0 0 0 0 0 0 1 0 25 20 4 2 0 0 0 0 4 0 0 0 0 0 0 0 0 0 0 0 0 0 0 0 0 0 0 0
32 20 82 57 25 14 9 12 10 11 0 0 0 0 0 0 0 0 0 0 0 0 0 0 0 0 0 0 0 0 0 0 0 0 0 0 0 0 0 0 0 0 0 0 0 0 0
53 23 26 53 15 3 7 11 9 15 0 0 0 0 0 0 0 0 0 0 0 0 0 0 0 0 0 0 0 0 0 0 0 0 0 0 0 0 0 0 0 0 0 0 0 0 0
38 28 9 46 3 1 6 10 17 18 5 0 0 0 0 0 0 0 0 0 0 0 0 0 0 0 0 0 0 0 0 0 0 0 0 0 0 0 0 0 0 0 0 0 0 0 0
29 27 10 51 6 5 5 9 21 21 14 0 0 0 0 0 0 0 0 0 0 0 0 0 0 0 0 0 0 0 0 0 0 0 0 0 0 0 0 0 0 0 0 0 0 0 0
39 35 12 37 2 1 3 9 19 20 6 0 0 0 0 0 0 0 0 0 0 0 0 0 0 0 0 0 0 0 0 0 0 0 0 0 0 0 0 0 0 0 0 0 0 0 0
26 15 12 17 0 0 4 19 15 14 1 0 0 0 0 0 0 0 0 0 0 0 0 0 0 0 0 0 0 0 0 0 0 0 0 0 0 0 0 0 0 0 0 0 0 0 0
35 22 15 7 0 0 10 21 15 8 1 0 0 0 0 0 0 0 0 0 0 0 0 0 0 0 0 0 0 0 0 0 0 0 0 0 0 0 0 0 0 0 0 0 0 0 0
CIN
-0 -10 -3 -0 -0 -0 -0 -0 -0 -0 -0 -0 -0 -0 -0 -0 -0 -0 -0 -0 -0 -0 -0 -0 -0 -3 -6 -0 -0 -0 -0 -0 -0 -1 -0 -17 -26 -0 -1 -0 -0 -0 -0 -0 -0 -0 -0
-1 -6 -8 -0 -0 -0 -0 -0 -0 -0 -0 -0 -0 -0 -0 -0 -0 -0 -0 -0 -0 -0 -0 -1 -1 -1 -2 -0 -0 -0 -0 -0 -0 -4 -1 -0 -13 -0 -0 -0 -0 -0 -0 -0 -0 -0 -0
-4 -2 -9 -6 -1 -0 -0 -0 -0 -0 -0 -0 -0 -0 -0 -1 -0 -0 -0 -0 -0 -0 -0 -3 -2 -12 -0 -0 -0 -0 -0 -0 -0 -3 -1 -0 -43 -21 -0 -0 -0 -0 -26 -0 -0 -0 -0
-3 -2 -3 -11 -1 -1 -0 -0 -0 -0 -0 -0 -0 -0 -0 -3 -0 -0 -0 -0 -0 -0 -3 -5 -6 -18 -0 -12 -0 -0 -0 -0 -0 -0 -0 -0 -40 -52 -43 -32 -0 -36 -0 -9 -0 -0 -0
-1 -2 -1 -4 -6 -0 -0 -0 -0 -0 -0 -0 -0 -0 -0 -0 -0 -0 -0 -0 -0 -0 -3 -8 -9 -8 -1 -12 -0 -0 -0 -0 -0 -39 -25 -13 -26 -10 -35 -18 -5 -0 -20 -0 -0 -0 -0
-5 -4 -3 -5 -8 -2 -0 -0 -0 -0 -0 -0 -0 -0 -0 -1 -0 -0 -0 -0 -1 -3 -4 -5 -8 -6 -16 -3 -0 -0 -0 -0 -5 -7 -0 -0 -0 -2 -9 -10 -0 -0 -6 -0 -0 -0 -0
-4 -2 -2 -3 -4 -6 -0 -0 -0 -0 -0 -0 -0 -0 -0 -1 -1 -0 -0 -0 -1 -0 -2 -0 -0 -0 -28 -12 -0 -58 -0 -0 -0 -0 -15 -3 -12 -0 -4 -16 -0 -0 -0 -0 -0 -0 -0
-7 -2 -2 -4 -4 -4 -5 -0 -0 -0 -0 -0 -0 -0 -0 -0 -1 -0 -0 -0 -0 -0 -0 -0 -0 -3 -0 -37 -3 -49 -0 -0 -8 -0 -0 -1 -1 -5 -9 -12 -4 -0 -0 -0 -0 -0 -0
-4 -7 -2 -3 -5 -3 -4 -1 -0 -0 -0 -0 -0 -0 -4 -0 -1 -0 -0 -0 -15 -13 -0 -0 -0 -0 -19 -0 -9 -23 -0 -1 -2 -0 -24 -0 -5 -5 -10 -31 -9 -0 -0 -0 -0 -0 -0
-5 -5 -3 -2 -5 -2 -0 -0 -1 -0 -0 -0 -0 -0 -1 -9 -0 -2 -1 -0 -11 -13 -0 -0 -0 -0 -2 -13 -6 -47 -0 -27 -3 -0 -0 -0 -39 -26 -4 -35 -0 -10 -0 -0 -0 -0 -0
-3 -6 -5 -2 -3 -3 -1 -0 -0 -0 -0 -0 -0 -0 -0 -11 -0 -0 -8 -0 -9 -7 -0 -0 -0 -14 -0 -1 -19 -32 -0 -16 -5 -0 -0 -5 -3 -3 -8 -0 -0 -0 -0 -0 -0 -0 -0
-2 -1 -1 -4 -3 -6 -2 -1 -0 -0 -0 -0 -0 -0 -0 -0 -0 -1 -6 -2 -2 -0 -0 -0 -0 -0 -0 -6 -19 -32 -1 -31 -12 -6 -1 -10 -10 -4 -56 -0 -0 -0 -0 -0 -0 -0 -0
-2 -1 -0 -1 -3 -3 -3 -2 -0 -0 -0 -0 -0 -0 -0 -3 -0 -3 -13 -0 -0 -0 -0 -0 -0 -0 -0 -0 -18 -3 -0 -0 -0 -0 -0 -0 -39 -37 -64 -0 -0 -0 -8 -1 -0 -0 -0
-3 -2 -3 -2 -3 -1 -1 -1 -1 -0 -0 -0 -1 -0 -1 -3 -1 -2 -2 -0 -0 -0 -0 -1 -4 -3 -7 -0 -0 -1 -8 -0 -0 -11 -1 -0 -13 -0 -0 -0 -0 -0 -0 -0 -0 -0 -0
-6 -5 -4 -6 -2 -2 -1 -1 -0 -0 -0 -0 -1 -2 -2 -2 -0 -0 -0 -0 -0 -2 -0 -0 -4 -0 -0 -3 -0 -0 -0 -0 -0 -22 -0 -0 -0 -0 -0 -0 -0 -0 -0 -0 -0 -0 -0
-6 -6 -6 -5 -3 -0 -0 -0 -0 -0 -0 -0 -1 -0 -0 -6 -0 -0 -0 -0 -0 -0 -0 -0 -0 -0 -0 -1 -3 -5 -0 -1 -0 -0 -0 -0 -2 -0 -0 -0 -0 -0 -0 -0 -0 -0 -0
-12 -10 -6 -2 -3 -0 -0 -0 -0 -1 -0 -0 -0 -0 -1 -0 -1 -0 -0 -0 -0 -1 -0 -0 -7 -5 -2 -0 -0 -0 -0 -4 -1 -18 -0 -0 -0 -0 -0 -0 -0 -0 -0 -0 -0 -0 -0
-9 -12 -9 -3 -6 -1 -0 -0 -0 -1 -0 -0 -0 -0 -0 -3 -0 -0 -0 -0 -0 -0 -36 -0 -0 -16 -0 -0 -0 -0 -10 -0 -6 -0 -0 -0 -0 -0 -0 -0 -0 -0 -0 -0 -0 -0 -0
-5 -5 -12 -10 -12 -3 -0 -0 -0 -3 -0 -0 -0 -0 -0 -0 -0 -0 -0 -0 -1 -9 -8 -15 -8 -9 -0 -0 -0 -7 -1 -0 -0 -13 -0 -0 -0 -0 -0 -0 -0 -0 -0 -0 -0 -0 -0
-7 -0 -10 -11 -13 -5 -3 -0 -0 -4 -0 -0 -0 -0 -0 -0 -0 -0 -0 -0 -0 -18 -14 -32 -0 -0 -0 -0 -0 -0 -0 -0 -0 -0 -0 -0 -0 -0 -0 -0 -0 -0 -0 -0 -0 -0 -0
-0 -1 -9 -12 -7 -2 -3 -0 -1 -3 -0 -0 -0 -0 -0 -0 -0 -0 -0 -2 -1 -0 -3 -1 -4 -0 -0 -12 -0 -0 -0 -0 -0 -0 -0 -0 -0 -0 -0 -0 -0 -0 -0 -0 -0 -0 -0
-0 -5 -12 -13 -10 -5 -2 -0 -1 -3 -0 -0 -0 -0 -0 -0 -0 -0 -0 -0 -0 -2 -3 -2 -0 -0 -0 -20 -0 -0 -0 -0 -0 -0 -0 -0 -0 -0 -0 -0 -0 -0 -0 -0 -0 -0 -0
-0 -0 -2 -10 -4 -9 -7 -2 -1 -1 -0 -0 -0 -0 -0 -0 -0 -0 -0 -0 -0 -0 -0 -0 -0 -0 -0 -0 -0 -0 -0 -0 -0 -0 -0 -0 -0 -0 -0 -0 -0 -0 -0 -0 -0 -0 -0
-0 -0 -0 -3 -9 -5 -10 -3 -1 -1 -0 -0 -0 -0 -0 -0 -0 -0 -0 -0 -0 -0 -0 -0 -0 -0 -0 -0 -0 -0 -0 -0 -0 -0 -0 -0 -0 -0 -0 -0 -0 -0 -0 -0 -0 -0 -0
-0 -0 -0 -0 -12 -4 -8 -4 -0 -0 -0 -0 -0 -0 -0 -0 -0 -0 -0 -0 -0 -0 -0 -0 -0 -0 -0 -0 -0 -0 -0 -0 -0 -0 -0 -0 -0 -0 -0 -0 -0 -0 -0 -0 -0 -0 -0
-0 -0 -0 -0 -22 -15 -7 -3 -0 -0 -0 -0 -0 -0 -0 -0 -0 -0 -0 -0 -0 -0 -0 -0 -0 -0 -0 -0 -0 -0 -0 -0 -0 -0 -0 -0 -0 -0 -0 -0 -0 -0 -0 -0 -0 -0 -0
-0 -0 -0 -0 -13 -23 -9 -3 -0 -0 -0 -0 -0 -0 -0 -0 -0 -0 -0 -0 -0 -0 -0 -0 -0 -0 -0 -0 -0 -0 -0 -0 -0 -0 -0 -0 -0 -0 -0 -0 -0 -0 -0 -0 -0 -0 -0
-0 -0 -0 -3 -0 -6 -5 -0 -0 -0 -0 -0 -0 -0 -0 -0 -0 -0 -0 -0 -0 -0 -0 -0 -0 -0 -0 -0 -0 -0 -0 -0 -0 -0 -0 -0 -0 -0 -0 -0 -0 -0 -0 -0 -0 -0 -0
-0 -0 -0 -0 -0 -0 -2 -0 -0 -0 -0 -0 -0 -0 -0 -0 -0 -0 -0 -0 -0 -0 -0 -0 -0 -0 -0 -0 -0 -0 -0 -0 -0 -0 -0 -0 -0 -0 -0 -0 -0 -0 -0 -0 -0 -0 -0
Wind_Speed
10 7 9 12 12 11 10 9 9 9 9 9 10 8 8 8 10 9 8 8 10 8 9 8 7 8 6 6 9 2 5 10 6 14 14 16 10 6 11 11 5 5 4 4 6 6 6
13 8 9 9 10 12 12 9 9 9 10 10 10 9 9 9 9 11 11 10 9 10 10 8 7 11 3 13 2 8 5 4 2 11 15 14 8 7 6 7 15 8 10 11 3 6 5
15 11 7 10 9 10 10 9 9 10 11 11 12 12 10 9 11 10 11 11 11 10 10 9 8 5 7 11 4 3 4 2 4 8 15 15 11 9 8 6 4 6 4 3 4 3 7
16 13 10 9 11 10 10 10 10 12 12 12 12 13 10 8 11 11 12 13 12 10 9 4 4 3 6 5 12 10 1 5 4 6 15 11 9 8 4 6 4 10 3 9 2 2 4
15 13 9 11 10 11 11 12 13 11 12 12 12 13 9 10 10 12 13 15 13 10 9 4 3 2 5 3 5 7 8 4 5 3 8 9 6 7 4 7 4 2 5 5 6 6 6
12 14 11 9 10 11 12 11 10 10 12 12 12 12 12 10 10 13 14 10 9 5 5 5 2 3 2 5 3 5 5 9 3 8 6 9 7 9 8 9 12 7 7 4 5 2 2
14 14 10 9 9 9 10 10 11 10 11 12 11 12 12 11 9 15 11 4 6 4 6 7 8 4 2 8 4 5 5 8 2 8 10 15 11 15 16 12 5 7 7 10 2 2 1
14 13 9 10 10 9 8 9 11 10 10 12 11 12 12 10 12 16 12 7 6 5 4 14 7 15 5 3 5 4 9 10 8 7 11 11 14 12 9 8 7 6 5 5 3 1 3
14 14 11 11 9 9 9 9 10 10 10 12 11 11 6 5 11 10 6 8 5 2 2 4 17 7 5 10 4 6 13 9 9 11 18 17 7 15 12 7 9 4 6 4 4 3 1
13 14 13 10 11 9 9 9 10 11 10 11 12 9 7 4 7 2 2 10 9 11 0 6 10 8 7 7 5 9 16 12 7 15 17 11 6 16 14 12 9 9 4 2 2 4 3
13 14 14 11 12 9 9 11 11 11 10 10 10 9 7 8 1 3 8 10 12 4 4 8 9 2 10 10 6 6 16 11 9 11 10 6 14 18 16 15 9 4 6 3 0 3 1
14 14 14 13 11 11 10 10 12 11 10 9 10 9 6 3 3 2 13 16 5 4 6 9 8 10 14 4 5 12 12 8 4 8 15 3 3 10 8 8 9 9 7 6 3 4 3
12 13 13 14 11 9 10 11 11 9 9 8 9 9 5 3 2 11 12 8 3 5 2 7 6 10 11 7 3 10 16 17 6 11 18 3 3 4 6 10 3 5 7 3 1 4 5
13 14 15 12 12 9 10 10 9 8 8 7 8 8 6 6 9 14 6 2 7 5 6 2 6 13 7 10 9 11 16 14 10 2 11 5 6 8 6 7 7 6 6 5 5 4 3
15 15 12 13 11 11 10 9 7 8 8 6 3 2 3 8 14 7 6 4 4 3 8 10 11 12 6 11 7 9 11 12 10 6 8 13 3 2 8 4 10 4 5 4 4 2 1
14 15 13 13 12 11 9 9 5 6 7 1 1 2 3 12 14 7 3 4 5 9 11 13 6 5 9 14 2 9 12 13 12 16 6 5 6 4 4 6 4 7 6 3 2 4 4
15 14 12 13 12 8 7 8 5 5 5 0 3 2 3 13 8 3 3 5 6 9 12 10 6 7 7 8 5 6 16 6 10 19 5 6 5 1 6 5 10 5 3 1 3 2 4
17 13 11 11 9 7 7 6 6 3 5 5 2 2 4 10 7 4 4 5 8 16 7 7 7 5 9 10 9 9 11 6 14 13 8 7 7 5 3 1 3 5 8 11 4 3 2
22 15 12 10 9 7 7 7 4 2 6 4 2 2 4 2 4 8 6 9 8 7 6 7 5 5 7 11 9 5 9 12 15 17 10 7 2 7 5 2 4 5 4 4 4 3 6
26 19 13 10 10 9 8 7 5 3 8 5 2 4 3 5 2 3 3 3 5 2 1 1 4 6 10 11 2 9 7 5 10 19 7 4 3 6 8 5 7 5 4 4 6 4 5
27 21 14 12 11 10 9 7 5 5 9 4 2 6 5 6 7 10 3 9 5 5 3 2 4 7 10 6 5 6 4 4 3 10 3 2 3 3 1 2 6 8 10 12 10 11 11
25 28 15 14 12 10 9 8 6 7 8 2 3 3 0 2 2 7 7 4 14 3 5 7 8 14 7 7 6 11 10 5 8 2 3 3 3 3 2 2 4 5 6 11 9 3 8
24 26 15 13 12 11 10 8 8 8 9 3 2 2 2 2 2 4 6 5 7 8 4 2 12 9 5 5 5 6 2 8 8 8 5 4 6 3 2 2 4 3 10 10 7 6 10
23 24 20 15 12 12 10 9 9 10 11 3 3 1 3 4 3 4 5 4 6 5 6 3 4 6 1 5 7 11 14 14 12 7 3 6 6 2 4 2 1 5 1 5 6 3 5
24 23 26 16 14 12 11 10 10 10 13 3 2 2 3 4 1 2 6 7 3 3 5 4 5 3 1 1 5 7 4 5 4 5 4 5 7 2 5 4 4 1 4 7 8 6 6
22 24 27 16 14 13 11 10 10 9 11 3 3 3 1 2 5 3 4 4 4 3 3 3 5 3 6 4 4 5 4 6 5 3 1 4 4 4 1 5 7 1 2 4 4 5 8
28 25 24 15 15 13 12 10 10 10 10 4 3 4 2 2 2 2 3 6 5 5 4 4 4 3 4 3 3 3 3 1 5 10 7 3 4 6 4 2 6 4 3 4 5 4 5
24 26 27 16 16 13 11 11 10 10 10 5 2 4 4 2 3 2 1 4 3 3 6 6 5 1 3 2 2 2 3 4 4 3 6 7 7 5 3 2 7 5 4 7 4 4 6
25 25 25 15 15 13 12 11 11 9 10 8 2 2 3 3 2 1 2 2 2 2 7 2 3 5 6 5 2 4 2 2 4 4 1 3 5 6 7 5 1 2 1 3 4 7 5
Wind_Direction
292 290 300 268 267 251 253 262 266 268 275 279 279 284 285 291 283 279 270 271 273 256 241 230 227 176 124 211 237 289 6 3 355 205 211 209 199 169 187 186 139 194 219 198 232 257 249
306 294 311 295 281 270 256 256 263 267 275 277 275 268 269 261 267 265 264 267 267 264 237 225 210 152 158 230 303 256 323 6 352 198 217 206 215 191 169 175 190 190 200 239 248 262 253
299 285 282 282 281 284 268 263 258 261 261 260 263 263 256 263 255 254 262 255 251 250 238 219 194 140 219 233 139 66 39 325 205 205 220 220 238 214 148 155 194 150 180 272 223 243 255
294 297 274 267 277 276 274 258 253 254 257 258 256 263 245 239 242 254 263 253 242 235 236 224 181 94 240 224 235 261 292 324 229 205 214 241 247 261 202 129 84 175 145 248 250 152 271
291 301 289 267 275 274 274 267 247 252 257 260 258 257 239 237 250 261 270 250 241 227 223 157 92 184 248 240 219 220 190 237 290 201 203 230 275 218 180 129 142 180 195 208 280 222 223
293 297 294 291 276 278 271 277 264 257 260 259 263 258 244 250 268 282 272 241 229 180 126 102 60 125 234 228 188 181 187 173 259 174 183 201 219 193 186 163 196 161 196 163 194 190 161
284 279 286 290 281 286 278 273 274 262 265 263 259 262 247 237 257 267 271 167 141 188 184 185 178 225 184 198 123 199 161 158 246 187 189 201 196 199 188 180 166 156 168 214 236 252 230
279 283 277 281 280 281 281 272 272 268 267 265 262 264 261 231 254 268 260 173 188 166 174 225 227 224 253 214 183 183 152 162 201 181 196 192 204 183 161 161 132 141 151 206 274 209 202
271 270 269 275 286 277 270 271 267 269 265 267 267 273 216 250 277 277 203 166 105 127 52 204 212 207 201 193 233 181 178 185 196 168 194 201 186 167 166 167 169 168 160 163 209 313 213
270 276 274 261 274 276 268 264 259 264 265 267 268 266 219 292 275 108 205 117 84 59 212 211 186 232 202 155 219 191 192 179 194 184 197 236 224 164 166 180 169 206 189 102 93 36 267
270 276 278 270 267 260 257 262 257 257 254 261 274 270 246 175 323 208 135 118 113 82 247 144 161 236 166 174 132 201 185 207 179 148 195 215 181 175 175 182 162 189 161 161 209 200 32
259 269 272 276 256 261 253 259 262 254 253 247 250 260 241 213 203 181 151 136 125 180 240 182 155 164 158 172 198 147 176 224 229 146 201 236 177 154 181 156 156 152 79 54 38 47 275
257 263 263 274 277 268 273 253 262 260 254 244 247 240 210 173 256 124 126 125 164 235 119 157 171 157 159 163 189 163 182 201 182 146 198 193 146 96 111 129 59 129 117 49 55 211 227
252 259 265 263 264 261 275 261 257 276 284 258 251 240 215 202 141 146 136 182 224 150 175 210 133 145 171 142 209 175 168 204 226 257 156 199 162 152 152 188 150 160 145 166 189 190 236
250 251 256 267 267 265 271 273 249 275 285 279 298 246 216 192 159 170 114 207 248 161 164 159 131 159 201 179 159 166 184 196 192 227 157 184 185 148 168 146 141 201 167 135 111 55 80
249 252 245 258 262 267 276 288 256 281 289 295 222 215 225 160 155 141 119 240 238 213 184 150 129 168 184 178 170 156 180 188 192 234 242 171 104 174 120 105 40 153 145 146 300 185 222
244 249 231 250 263 254 264 278 266 288 313 103 146 201 166 152 140 185 223 238 247 193 149 162 121 146 176 159 228 161 176 164 190 212 213 154 107 100 121 203 165 144 126 173 168 133 162
255 243 220 242 256 233 256 259 254 284 107 122 157 219 141 150 174 190 195 207 238 175 186 191 130 158 157 149 176 194 195 223 182 187 175 212 127 128 173 41 173 148 158 198 145 201 93
318 254 219 230 241 225 245 253 238 238 167 128 193 134 141 229 222 224 181 221 230 169 209 168 135 156 150 152 175 179 188 212 185 199 179 187 129 113 110 38 11 186 149 181 119 82 178
325 276 216 220 225 221 237 241 213 218 162 110 151 157 142 224 244 272 191 215 195 124 175 114 133 112 144 173 134 173 183 190 166 201 213 124 127 152 183 165 136 173 157 175 157 168 171
324 291 206 214 216 213 225 230 213 200 175 109 175 231 177 196 229 227 230 180 214 173 258 260 174 178 171 138 118 141 176 118 104 145 105 140 138 121 1 175 146 168 177 182 194 200 203
321 320 225 208 209 203 212 218 216 195 157 148 213 182 313 249 246 172 179 192 204 184 196 197 196 176 188 153 187 183 150 151 157 148 125 358 185 133 99 150 158 183 198 194 211 176 250
315 318 260 203 205 201 200 213 216 189 158 178 251 286 133 215 188 190 192 176 199 156 203 268 146 148 174 172 173 136 116 109 136 132 124 148 121 135 194 174 134 288 206 187 202 197 203
312 313 310 197 201 204 194 209 217 199 179 151 223 133 126 250 175 228 132 114 180 212 140 8 42 108 0 106 104 71 66 67 120 56 69 131 88 321 145 153 195 241 41 189 156 189 182
311 314 320 197 195 202 198 208 221 210 182 152 201 162 193 260 180 158 124 118 135 78 71 58 19 26 89 55 82 71 25 76 51 37 36 88 170 145 147 191 284 271 199 157 171 228 188
315 317 320 205 192 197 201 212 219 215 185 132 219 145 187 183 237 135 129 162 133 90 67 39 18 5 33 47 84 126 176 164 175 102 69 86 77 112 59 158 202 239 184 174 139 275 178
332 321 310 212 198 194 197 210 217 215 187 153 239 165 133 200 261 166 159 164 121 93 91 128 155 40 13 76 53 143 142 155 151 160 169 94 30 144 194 210 287 231 162 156 115 251 114
317 315 309 220 199 190 191 202 215 217 185 152 235 178 155 141 305 338 30 134 104 128 143 177 112 144 62 79 105 202 142 200 110 156 173 156 151 176 105 118 263 152 118 166 163 51 114
317 314 307 251 197 188 186 196 210 215 186 164 230 182 151 101 162 305 77 4 323 173 128 32 137 158 169 111 172 118 143 160 144 188 7 196 179 178 170 210 236 23 16 88 116 121 137